Time,TemperatureF,DewpointF,PressureIn,WindDirection,WindDirectionDegrees,WindSpeedMPH,WindSpeedGustMPH,Humidity,HourlyPrecipIn,Conditions,Clouds,dailyrainin,SoftwareType,DateUTC
2013-01-05 00:00:00,20.7,18.5,30.32,SW,225,0.0,2.0,91,0.00,,,0.01,meteohub,2013-01-05 05:00:00,
2013-01-05 00:01:00,20.5,18.3,30.32,SW,225,0.0,0.0,91,0.00,,,0.01,meteohub,2013-01-05 05:01:00,
2013-01-05 00:06:00,20.3,18.1,30.32,WSW,252,0.0,0.0,91,0.00,,,0.00,meteohub,2013-01-05 05:06:00,
2013-01-05 00:11:00,20.1,18.1,30.33,WSW,249,0.0,1.0,92,0.00,,,0.00,meteohub,2013-01-05 05:11:00,
2013-01-05 00:16:00,20.1,18.1,30.32,SW,231,0.0,1.0,92,0.00,,,0.00,meteohub,2013-01-05 05:16:00,
2013-01-05 00:21:00,20.1,18.1,30.32,SW,227,0.0,1.0,92,0.00,,,0.00,meteohub,2013-01-05 05:21:00,
2013-01-05 00:26:00,19.9,18.0,30.32,SW,229,0.0,1.0,92,0.00,,,0.00,meteohub,2013-01-05 05:26:00,
2013-01-05 00:31:00,19.8,17.8,30.32,SW,229,0.0,0.0,92,0.00,,,0.00,meteohub,2013-01-05 05:31:00,
2013-01-05 00:36:00,19.8,17.8,30.32,SW,232,0.0,1.0,92,0.00,,,0.00,meteohub,2013-01-05 05:36:00,
2013-01-05 00:41:00,19.8,17.8,30.32,SW,232,0.0,1.0,92,0.00,,,0.00,meteohub,2013-01-05 05:41:00,
2013-01-05 00:46:00,19.6,17.6,30.32,WSW,245,0.0,1.0,92,0.00,,,0.00,meteohub,2013-01-05 05:46:00,
2013-01-05 00:51:00,19.2,17.2,30.32,SW,233,0.0,0.0,92,0.00,,,0.00,meteohub,2013-01-05 05:51:00,
2013-01-05 00:56:00,19.2,17.2,30.31,WSW,238,0.0,0.0,92,0.00,,,0.00,meteohub,2013-01-05 05:56:00,
2013-01-05 01:01:00,19.2,17.6,30.31,WSW,239,0.0,0.0,93,0.00,,,0.00,meteohub,2013-01-05 06:01:00,
2013-01-05 01:06:00,19.0,17.1,30.31,WSW,241,0.0,0.0,92,0.00,,,0.00,meteohub,2013-01-05 06:06:00,
2013-01-05 01:11:00,18.9,17.2,30.31,WSW,242,0.0,0.0,93,0.00,,,0.00,meteohub,2013-01-05 06:11:00,
2013-01-05 01:16:00,18.9,17.2,30.31,WSW,245,0.0,0.0,93,0.00,,,0.00,meteohub,2013-01-05 06:16:00,
2013-01-05 01:21:00,18.7,17.1,30.31,SW,228,0.0,0.0,93,0.00,,,0.00,meteohub,2013-01-05 06:21:00,
2013-01-05 01:26:00,18.5,16.5,30.31,SW,224,0.0,0.0,92,0.00,,,0.00,meteohub,2013-01-05 06:26:00,
2013-01-05 01:31:00,18.5,16.9,30.32,West,263,0.0,0.0,93,0.00,,,0.00,meteohub,2013-01-05 06:31:00,
2013-01-05 01:36:00,19.0,17.4,30.32,West,271,0.0,0.0,93,0.00,,,0.00,meteohub,2013-01-05 06:36:00,
2013-01-05 01:41:00,19.0,17.4,30.32,West,263,1.0,0.0,93,0.00,,,0.00,meteohub,2013-01-05 06:41:00,
2013-01-05 01:46:00,19.2,17.6,30.32,West,270,1.0,2.0,93,0.00,,,0.00,meteohub,2013-01-05 06:46:00,
2013-01-05 01:51:00,19.2,17.6,30.32,SW,219,0.0,2.0,93,0.00,,,0.00,meteohub,2013-01-05 06:51:00,
2013-01-05 01:56:00,19.0,17.4,30.33,WSW,238,1.0,1.0,93,0.00,,,0.00,meteohub,2013-01-05 06:56:00,
2013-01-05 02:01:00,19.2,17.6,30.34,West,271,0.0,1.0,93,0.00,,,0.00,meteohub,2013-01-05 07:01:00,
2013-01-05 02:06:00,19.2,17.6,30.34,WSW,246,0.0,1.0,93,0.00,,,0.00,meteohub,2013-01-05 07:06:00,
2013-01-05 02:11:00,19.2,17.6,30.35,WSW,252,0.0,1.0,93,0.00,,,0.00,meteohub,2013-01-05 07:11:00,
2013-01-05 02:16:00,19.0,17.4,30.35,WNW,300,0.0,1.0,93,0.00,,,0.00,meteohub,2013-01-05 07:16:00,
2013-01-05 02:21:00,19.0,17.4,30.35,NW,311,0.0,1.0,93,0.00,,,0.00,meteohub,2013-01-05 07:21:00,
2013-01-05 02:26:00,19.0,17.4,30.36,West,278,1.0,1.0,93,0.00,,,0.00,meteohub,2013-01-05 07:26:00,
2013-01-05 02:31:00,19.0,17.4,30.35,NW,307,0.0,1.0,93,0.00,,,0.00,meteohub,2013-01-05 07:31:00,
2013-01-05 02:36:00,19.0,17.4,30.35,NW,304,0.0,1.0,93,0.00,,,0.00,meteohub,2013-01-05 07:36:00,
2013-01-05 02:41:00,18.9,16.9,30.35,NNE,21,0.0,1.0,92,0.00,,,0.00,meteohub,2013-01-05 07:41:00,
2013-01-05 02:46:00,18.7,16.7,30.35,NNE,23,0.0,1.0,92,0.00,,,0.00,meteohub,2013-01-05 07:46:00,
2013-01-05 02:51:00,18.7,16.7,30.35,North,359,0.0,0.0,92,0.00,,,0.00,meteohub,2013-01-05 07:51:00,
2013-01-05 02:56:00,18.9,17.2,30.36,North,10,0.0,0.0,93,0.00,,,0.00,meteohub,2013-01-05 07:56:00,
2013-01-05 03:01:00,19.0,17.4,30.36,North,1,0.0,0.0,93,0.00,,,0.00,meteohub,2013-01-05 08:01:00,
2013-01-05 03:06:00,19.0,17.4,30.36,North,354,0.0,0.0,93,0.00,,,0.00,meteohub,2013-01-05 08:06:00,
2013-01-05 03:11:00,18.9,16.9,30.36,NNW,328,0.0,0.0,92,0.00,,,0.00,meteohub,2013-01-05 08:11:00,
2013-01-05 03:16:00,18.7,16.7,30.36,NNW,327,0.0,0.0,92,0.00,,,0.00,meteohub,2013-01-05 08:16:00,
2013-01-05 03:21:00,18.7,16.7,30.36,NNE,27,1.0,0.0,92,0.00,,,0.00,meteohub,2013-01-05 08:21:00,
2013-01-05 03:26:00,18.5,16.5,30.36,North,349,1.0,1.0,92,0.00,,,0.00,meteohub,2013-01-05 08:26:00,
2013-01-05 03:31:00,18.3,16.3,30.36,North,8,1.0,1.0,92,0.00,,,0.00,meteohub,2013-01-05 08:31:00,
2013-01-05 03:36:00,18.3,16.7,30.36,NE,44,1.0,2.0,93,0.00,,,0.00,meteohub,2013-01-05 08:36:00,
2013-01-05 03:41:00,18.3,16.7,30.36,North,353,0.0,2.0,93,0.00,,,0.00,meteohub,2013-01-05 08:41:00,
2013-01-05 03:46:00,18.3,16.7,30.36,NNW,346,1.0,2.0,93,0.00,,,0.00,meteohub,2013-01-05 08:46:00,
2013-01-05 03:51:00,18.3,16.7,30.36,NNE,13,0.0,2.0,93,0.00,,,0.00,meteohub,2013-01-05 08:51:00,
2013-01-05 03:56:00,18.3,16.7,30.36,North,358,0.0,1.0,93,0.00,,,0.00,meteohub,2013-01-05 08:56:00,
2013-01-05 04:01:00,18.3,16.7,30.36,NW,315,0.0,1.0,93,0.00,,,0.00,meteohub,2013-01-05 09:01:00,
2013-01-05 04:06:00,18.1,16.2,30.36,NW,316,0.0,1.0,92,0.00,,,0.00,meteohub,2013-01-05 09:06:00,
2013-01-05 04:11:00,18.1,16.2,30.35,NW,323,1.0,1.0,92,0.00,,,0.00,meteohub,2013-01-05 09:11:00,
2013-01-05 04:16:00,18.0,16.0,30.35,NNE,18,0.0,2.0,92,0.00,,,0.00,meteohub,2013-01-05 09:16:00,
2013-01-05 04:21:00,18.0,16.0,30.35,NW,326,0.0,2.0,92,0.00,,,0.00,meteohub,2013-01-05 09:21:00,
2013-01-05 04:26:00,18.0,16.0,30.35,NW,319,0.0,2.0,92,0.00,,,0.00,meteohub,2013-01-05 09:26:00,
2013-01-05 04:31:00,17.8,15.8,30.35,NW,316,0.0,1.0,92,0.00,,,0.00,meteohub,2013-01-05 09:31:00,
2013-01-05 04:36:00,17.8,15.8,30.35,NW,313,0.0,2.0,92,0.00,,,0.00,meteohub,2013-01-05 09:36:00,
2013-01-05 04:41:00,17.4,15.4,30.35,NW,316,1.0,2.0,92,0.00,,,0.00,meteohub,2013-01-05 09:41:00,
2013-01-05 04:46:00,17.4,15.4,30.35,NW,314,0.0,2.0,92,0.00,,,0.00,meteohub,2013-01-05 09:46:00,
2013-01-05 04:51:00,17.2,15.3,30.35,NW,318,0.0,1.0,92,0.00,,,0.00,meteohub,2013-01-05 09:51:00,
2013-01-05 04:56:00,17.2,15.3,30.35,NW,323,1.0,1.0,92,0.00,,,0.00,meteohub,2013-01-05 09:56:00,
2013-01-05 05:01:00,17.2,15.3,30.35,NW,321,1.0,1.0,92,0.00,,,0.00,meteohub,2013-01-05 10:01:00,
2013-01-05 05:06:00,17.2,15.3,30.35,NW,319,1.0,3.0,92,0.00,,,0.00,meteohub,2013-01-05 10:06:00,
2013-01-05 05:11:00,17.1,15.1,30.35,NW,326,1.0,3.0,92,0.00,,,0.00,meteohub,2013-01-05 10:11:00,
2013-01-05 05:16:00,17.1,15.1,30.35,NW,316,1.0,2.0,92,0.00,,,0.00,meteohub,2013-01-05 10:16:00,
2013-01-05 05:21:00,17.1,15.1,30.35,NW,321,2.0,2.0,92,0.00,,,0.00,meteohub,2013-01-05 10:21:00,
2013-01-05 05:26:00,17.1,15.1,30.35,NW,325,1.0,2.0,92,0.00,,,0.00,meteohub,2013-01-05 10:26:00,
2013-01-05 05:31:00,17.1,15.1,30.35,NW,326,1.0,2.0,92,0.00,,,0.00,meteohub,2013-01-05 10:31:00,
2013-01-05 05:36:00,16.9,14.7,30.35,NW,320,1.0,2.0,91,0.00,,,0.00,meteohub,2013-01-05 10:36:00,
2013-01-05 05:41:00,16.9,14.9,30.35,NW,311,1.0,1.0,92,0.00,,,0.00,meteohub,2013-01-05 10:41:00,
2013-01-05 05:46:00,17.1,15.1,30.35,NW,313,1.0,1.0,92,0.00,,,0.00,meteohub,2013-01-05 10:46:00,
2013-01-05 05:51:00,17.1,14.9,30.35,WNW,288,1.0,2.0,91,0.00,,,0.00,meteohub,2013-01-05 10:51:00,
2013-01-05 05:56:00,16.9,14.7,30.35,WNW,296,1.0,2.0,91,0.00,,,0.00,meteohub,2013-01-05 10:56:00,
2013-01-05 06:01:00,16.9,14.7,30.35,NW,314,1.0,2.0,91,0.00,,,0.00,meteohub,2013-01-05 11:01:00,
2013-01-05 06:06:00,16.7,14.5,30.35,WNW,296,1.0,2.0,91,0.00,,,0.00,meteohub,2013-01-05 11:06:00,
2013-01-05 06:11:00,16.7,14.5,30.35,NW,326,1.0,2.0,91,0.00,,,0.00,meteohub,2013-01-05 11:11:00,
2013-01-05 06:16:00,16.5,14.4,30.35,NW,324,1.0,2.0,91,0.00,,,0.00,meteohub,2013-01-05 11:16:00,
2013-01-05 06:21:00,16.3,14.2,30.35,NNW,331,1.0,2.0,91,0.00,,,0.00,meteohub,2013-01-05 11:21:00,
2013-01-05 06:26:00,16.2,13.8,30.35,NW,326,1.0,2.0,90,0.00,,,0.00,meteohub,2013-01-05 11:26:00,
2013-01-05 06:31:00,16.0,13.8,30.36,NW,326,0.0,2.0,91,0.00,,,0.00,meteohub,2013-01-05 11:31:00,
2013-01-05 06:37:00,16.2,14.0,30.36,NNW,345,2.0,2.0,91,0.00,,,0.00,meteohub,2013-01-05 11:37:00,
2013-01-05 06:42:00,16.2,14.0,30.35,NW,319,1.0,2.0,91,0.00,,,0.00,meteohub,2013-01-05 11:42:00,
2013-01-05 06:47:00,16.2,14.0,30.36,NW,326,1.0,2.0,91,0.00,,,0.00,meteohub,2013-01-05 11:47:00,
2013-01-05 06:52:00,16.2,14.0,30.36,NW,313,0.0,2.0,91,0.00,,,0.00,meteohub,2013-01-05 11:52:00,
2013-01-05 06:57:00,16.0,13.8,30.36,NNW,327,1.0,2.0,91,0.00,,,0.00,meteohub,2013-01-05 11:57:00,
2013-01-05 07:02:00,16.0,13.8,30.36,NW,311,0.0,2.0,91,0.00,,,0.00,meteohub,2013-01-05 12:02:00,
2013-01-05 07:07:00,16.0,13.8,30.36,WNW,300,1.0,2.0,91,0.00,,,0.00,meteohub,2013-01-05 12:07:00,
2013-01-05 07:12:00,16.0,13.8,30.36,NW,322,1.0,2.0,91,0.00,,,0.00,meteohub,2013-01-05 12:12:00,
2013-01-05 07:17:00,16.0,13.6,30.36,NW,325,2.0,2.0,90,0.00,,,0.00,meteohub,2013-01-05 12:17:00,
2013-01-05 07:22:00,15.6,13.3,30.36,NW,326,2.0,2.0,90,0.00,,,0.00,meteohub,2013-01-05 12:22:00,
2013-01-05 07:27:00,15.6,13.5,30.36,West,281,1.0,2.0,91,0.00,,,0.00,meteohub,2013-01-05 12:27:00,
2013-01-05 07:32:00,15.6,13.3,30.36,WNW,287,1.0,2.0,90,0.00,,,0.00,meteohub,2013-01-05 12:32:00,
2013-01-05 07:37:00,15.4,13.1,30.35,NW,323,0.0,2.0,90,0.00,,,0.00,meteohub,2013-01-05 12:37:00,
2013-01-05 07:42:00,15.4,13.1,30.35,NNW,327,1.0,2.0,90,0.00,,,0.00,meteohub,2013-01-05 12:42:00,
2013-01-05 07:47:00,15.4,13.1,30.35,NW,323,1.0,2.0,90,0.00,,,0.00,meteohub,2013-01-05 12:47:00,
2013-01-05 07:52:00,15.3,12.9,30.35,NW,315,0.0,2.0,90,0.00,,,0.00,meteohub,2013-01-05 12:52:00,
2013-01-05 07:57:00,15.3,12.9,30.35,NW,324,1.0,2.0,90,0.00,,,0.00,meteohub,2013-01-05 12:57:00,
2013-01-05 08:02:00,15.3,13.1,30.35,WNW,288,1.0,2.0,91,0.00,,,0.00,meteohub,2013-01-05 13:02:00,
2013-01-05 08:07:00,15.3,12.9,30.35,WNW,287,1.0,1.0,90,0.00,,,0.00,meteohub,2013-01-05 13:07:00,
2013-01-05 08:12:00,15.3,12.9,30.35,NW,319,0.0,2.0,90,0.00,,,0.00,meteohub,2013-01-05 13:12:00,
2013-01-05 08:17:00,15.3,12.9,30.35,WNW,301,2.0,2.0,90,0.00,,,0.00,meteohub,2013-01-05 13:17:00,
2013-01-05 08:22:00,15.1,12.7,30.34,NW,311,1.0,2.0,90,0.00,,,0.00,meteohub,2013-01-05 13:22:00,
2013-01-05 08:27:00,15.1,12.7,30.34,West,277,1.0,2.0,90,0.00,,,0.00,meteohub,2013-01-05 13:27:00,
2013-01-05 08:32:00,15.3,12.9,30.35,NW,315,1.0,2.0,90,0.00,,,0.00,meteohub,2013-01-05 13:32:00,
2013-01-05 08:37:00,15.3,12.9,30.35,NW,316,1.0,2.0,90,0.00,,,0.00,meteohub,2013-01-05 13:37:00,
2013-01-05 08:41:00,15.3,12.9,30.35,NW,314,1.0,2.0,90,0.00,,,0.00,meteohub,2013-01-05 13:41:00,
2013-01-05 08:47:00,15.4,13.1,30.35,NW,316,1.0,2.0,90,0.00,,,0.00,meteohub,2013-01-05 13:47:00,
2013-01-05 08:52:00,15.4,13.1,30.35,NW,316,0.0,2.0,90,0.00,,,0.00,meteohub,2013-01-05 13:52:00,
2013-01-05 08:57:00,15.6,13.3,30.35,NW,312,0.0,2.0,90,0.00,,,0.00,meteohub,2013-01-05 13:57:00,
2013-01-05 09:02:00,15.8,13.5,30.35,NW,318,2.0,2.0,90,0.00,,,0.00,meteohub,2013-01-05 14:02:00,
2013-01-05 09:07:00,16.0,13.3,30.35,West,278,1.0,2.0,89,0.00,,,0.00,meteohub,2013-01-05 14:07:00,
2013-01-05 09:12:00,16.2,13.8,30.35,West,259,1.0,2.0,90,0.00,,,0.00,meteohub,2013-01-05 14:12:00,
2013-01-05 09:17:00,16.2,13.5,30.36,SW,214,1.0,2.0,89,0.00,,,0.00,meteohub,2013-01-05 14:17:00,
2013-01-05 09:22:00,16.5,14.2,30.36,SSW,200,0.0,2.0,90,0.00,,,0.00,meteohub,2013-01-05 14:22:00,
2013-01-05 09:27:00,17.1,14.7,30.36,West,265,0.0,2.0,90,0.00,,,0.00,meteohub,2013-01-05 14:27:00,
2013-01-05 09:32:00,17.4,15.1,30.36,NW,319,0.0,2.0,90,0.00,,,0.00,meteohub,2013-01-05 14:32:00,
2013-01-05 09:37:00,18.5,16.0,30.36,South,180,0.0,1.0,90,0.00,,,0.00,meteohub,2013-01-05 14:37:00,
2013-01-05 09:42:00,19.9,17.8,30.35,SSE,162,0.0,1.0,91,0.00,,,0.00,meteohub,2013-01-05 14:42:00,
2013-01-05 09:47:00,20.8,17.8,30.35,SSW,201,0.0,0.0,88,0.00,,,0.00,meteohub,2013-01-05 14:47:00,
2013-01-05 09:52:00,21.6,18.5,30.35,SSW,197,0.0,0.0,88,0.00,,,0.00,meteohub,2013-01-05 14:52:00,
2013-01-05 09:57:00,21.9,18.7,30.35,SSW,195,0.0,0.0,87,0.00,,,0.00,meteohub,2013-01-05 14:57:00,
2013-01-05 10:02:00,22.3,19.0,30.35,SSW,197,0.0,0.0,87,0.00,,,0.00,meteohub,2013-01-05 15:02:00,
2013-01-05 10:07:00,23.2,19.9,30.35,SSE,155,0.0,0.0,87,0.00,,,0.00,meteohub,2013-01-05 15:07:00,
2013-01-05 10:12:00,23.5,19.8,30.35,SSE,165,0.0,0.0,85,0.00,,,0.00,meteohub,2013-01-05 15:12:00,
2013-01-05 10:17:00,23.4,19.2,30.35,SSE,159,0.0,0.0,84,0.00,,,0.00,meteohub,2013-01-05 15:17:00,
2013-01-05 10:22:00,22.8,19.0,30.35,SSE,150,0.0,0.0,85,0.00,,,0.00,meteohub,2013-01-05 15:22:00,
2013-01-05 10:27:00,23.2,19.6,30.35,SW,215,0.0,0.0,86,0.00,,,0.00,meteohub,2013-01-05 15:27:00,
2013-01-05 10:32:00,23.2,19.9,30.35,SSW,209,0.0,0.0,87,0.00,,,0.00,meteohub,2013-01-05 15:32:00,
2013-01-05 10:37:00,23.7,21.0,30.34,SSW,209,0.0,0.0,89,0.00,,,0.00,meteohub,2013-01-05 15:37:00,
2013-01-05 10:42:00,24.3,21.2,30.35,SSW,209,0.0,0.0,88,0.00,,,0.00,meteohub,2013-01-05 15:42:00,
2013-01-05 10:47:00,24.3,20.7,30.34,SW,229,1.0,3.0,86,0.00,,,0.00,meteohub,2013-01-05 15:47:00,
2013-01-05 10:51:00,24.4,21.2,30.34,WSW,239,0.0,3.0,87,0.00,,,0.00,meteohub,2013-01-05 15:51:00,
2013-01-05 10:56:00,24.8,21.6,30.34,South,173,1.0,3.0,87,0.00,,,0.00,meteohub,2013-01-05 15:56:00,
2013-01-05 11:01:00,25.5,22.3,30.34,SW,235,0.0,2.0,87,0.00,,,0.00,meteohub,2013-01-05 16:01:00,
2013-01-05 11:07:00,26.1,22.6,30.34,SSW,198,0.0,1.0,87,0.00,,,0.00,meteohub,2013-01-05 16:07:00,
2013-01-05 11:12:00,27.3,23.7,30.34,SSW,197,0.0,2.0,86,0.00,,,0.00,meteohub,2013-01-05 16:12:00,
2013-01-05 11:17:00,28.2,24.3,30.33,ESE,118,0.0,2.0,85,0.00,,,0.00,meteohub,2013-01-05 16:17:00,
2013-01-05 11:22:00,28.9,24.8,30.32,SE,129,0.0,1.0,84,0.00,,,0.00,meteohub,2013-01-05 16:22:00,
2013-01-05 11:27:00,29.3,25.2,30.31,SW,222,0.0,1.0,84,0.00,,,0.00,meteohub,2013-01-05 16:27:00,
2013-01-05 11:32:00,29.5,25.0,30.31,SSW,208,0.0,1.0,83,0.00,,,0.00,meteohub,2013-01-05 16:32:00,
2013-01-05 11:37:00,29.5,25.0,30.30,South,172,0.0,2.0,83,0.00,,,0.00,meteohub,2013-01-05 16:37:00,
2013-01-05 11:42:00,30.6,26.2,30.30,ENE,78,0.0,2.0,84,0.00,,,0.00,meteohub,2013-01-05 16:42:00,
2013-01-05 11:47:00,31.8,27.5,30.30,SSE,168,0.0,2.0,84,0.00,,,0.00,meteohub,2013-01-05 16:47:00,
2013-01-05 11:52:00,33.1,28.4,30.30,SSW,208,1.0,2.0,83,0.00,,,0.00,meteohub,2013-01-05 16:52:00,
2013-01-05 11:57:00,34.2,28.9,30.30,West,264,0.0,7.0,81,0.00,,,0.00,meteohub,2013-01-05 16:57:00,
2013-01-05 12:02:00,35.6,30.0,30.29,NE,46,3.0,7.0,80,0.00,,,0.00,meteohub,2013-01-05 17:02:00,
2013-01-05 12:07:00,36.9,30.0,30.28,SSE,148,2.0,7.0,76,0.00,,,0.00,meteohub,2013-01-05 17:07:00,
2013-01-05 12:12:00,37.0,28.9,30.28,West,271,2.0,4.0,72,0.00,,,0.00,meteohub,2013-01-05 17:12:00,
2013-01-05 12:17:00,37.2,29.1,30.28,SSE,160,2.0,6.0,72,0.00,,,0.00,meteohub,2013-01-05 17:17:00,
2013-01-05 12:22:00,37.8,29.5,30.27,SSE,160,1.0,6.0,72,0.00,,,0.00,meteohub,2013-01-05 17:22:00,
2013-01-05 12:27:00,38.5,29.5,30.26,SSW,208,3.0,6.0,70,0.00,,,0.00,meteohub,2013-01-05 17:27:00,
2013-01-05 12:32:00,38.8,29.8,30.27,SSW,207,4.0,5.0,70,0.00,,,0.00,meteohub,2013-01-05 17:32:00,
2013-01-05 12:37:00,39.6,29.8,30.26,SW,218,2.0,5.0,68,0.00,,,0.00,meteohub,2013-01-05 17:37:00,
2013-01-05 12:42:00,39.9,29.5,30.26,SSE,162,3.0,5.0,66,0.00,,,0.00,meteohub,2013-01-05 17:42:00,
2013-01-05 12:47:00,39.7,29.3,30.25,SSW,197,3.0,7.0,66,0.00,,,0.00,meteohub,2013-01-05 17:47:00,
2013-01-05 12:52:00,39.7,28.9,30.25,SSW,195,2.0,7.0,65,0.01,,,0.01,meteohub,2013-01-05 17:52:00,
2013-01-05 12:57:00,39.9,28.4,30.25,WSW,241,3.0,7.0,63,0.01,,,0.01,meteohub,2013-01-05 17:57:00,
2013-01-05 13:02:00,40.1,28.6,30.25,SW,219,1.0,7.0,63,0.01,,,0.01,meteohub,2013-01-05 18:02:00,
2013-01-05 13:07:00,40.3,28.8,30.24,SSE,159,4.0,10.0,63,0.01,,,0.01,meteohub,2013-01-05 18:07:00,
2013-01-05 13:12:00,40.5,28.9,30.23,South,174,2.0,10.0,63,0.01,,,0.01,meteohub,2013-01-05 18:12:00,
2013-01-05 13:17:00,40.6,28.6,30.23,SSW,205,1.0,10.0,62,0.01,,,0.01,meteohub,2013-01-05 18:17:00,
2013-01-05 13:22:00,40.6,28.2,30.22,SSE,155,5.0,7.0,61,0.01,,,0.01,meteohub,2013-01-05 18:22:00,
2013-01-05 13:27:00,40.8,28.4,30.22,SSW,206,1.0,7.0,61,0.01,,,0.01,meteohub,2013-01-05 18:27:00,
2013-01-05 13:32:00,40.8,28.0,30.21,WSW,238,4.0,9.0,60,0.01,,,0.01,meteohub,2013-01-05 18:32:00,
2013-01-05 13:37:00,40.8,27.7,30.21,SSE,165,5.0,9.0,59,0.01,,,0.01,meteohub,2013-01-05 18:37:00,
2013-01-05 13:42:00,40.8,27.1,30.21,SSW,193,8.0,12.0,58,0.01,,,0.01,meteohub,2013-01-05 18:42:00,
2013-01-05 13:47:00,40.6,27.5,30.20,West,275,3.0,12.0,59,0.01,,,0.01,meteohub,2013-01-05 18:47:00,
2013-01-05 13:52:00,40.8,27.7,30.20,WNW,283,1.0,12.0,59,0.00,,,0.01,meteohub,2013-01-05 18:52:00,
2013-01-05 13:57:00,41.2,27.1,30.20,SW,228,2.0,9.0,57,0.00,,,0.01,meteohub,2013-01-05 18:57:00,
2013-01-05 14:02:00,41.2,27.1,30.19,SE,124,2.0,12.0,57,0.00,,,0.01,meteohub,2013-01-05 19:02:00,
2013-01-05 14:07:00,41.2,27.1,30.19,South,190,3.0,12.0,57,0.00,,,0.01,meteohub,2013-01-05 19:07:00,
2013-01-05 14:12:00,41.4,27.7,30.19,WSW,250,3.0,12.0,58,0.00,,,0.01,meteohub,2013-01-05 19:12:00,
2013-01-05 14:17:00,41.5,27.9,30.19,SW,215,0.0,11.0,58,0.00,,,0.01,meteohub,2013-01-05 19:17:00,
2013-01-05 14:22:00,41.7,27.7,30.18,SSW,206,2.0,11.0,57,0.00,,,0.01,meteohub,2013-01-05 19:22:00,
2013-01-05 14:27:00,41.5,28.2,30.17,SSE,150,1.0,5.0,59,0.00,,,0.01,meteohub,2013-01-05 19:27:00,
2013-01-05 14:32:00,41.4,28.9,30.17,WSW,248,1.0,5.0,61,0.01,,,0.02,meteohub,2013-01-05 19:32:00,
2013-01-05 14:37:00,41.4,28.0,30.17,SW,217,2.0,5.0,59,0.01,,,0.02,meteohub,2013-01-05 19:37:00,
2013-01-05 14:42:00,41.2,28.8,30.17,SSW,197,2.0,5.0,61,0.01,,,0.02,meteohub,2013-01-05 19:42:00,
2013-01-05 14:47:00,41.2,27.9,30.17,SW,214,3.0,3.0,59,0.01,,,0.02,meteohub,2013-01-05 19:47:00,
2013-01-05 14:52:00,41.2,28.4,30.17,South,176,1.0,3.0,60,0.01,,,0.02,meteohub,2013-01-05 19:52:00,
2013-01-05 14:57:00,41.2,28.4,30.17,SW,217,0.0,4.0,60,0.01,,,0.02,meteohub,2013-01-05 19:57:00,
2013-01-05 15:02:00,41.2,28.4,30.17,South,179,3.0,4.0,60,0.01,,,0.02,meteohub,2013-01-05 20:02:00,
2013-01-05 15:07:00,41.2,28.8,30.17,WSW,239,2.0,4.0,61,0.01,,,0.02,meteohub,2013-01-05 20:07:00,
2013-01-05 15:12:00,40.8,28.0,30.17,SSE,155,4.0,5.0,60,0.01,,,0.02,meteohub,2013-01-05 20:12:00,
2013-01-05 15:17:00,40.8,28.4,30.18,SSE,150,1.0,8.0,61,0.01,,,0.02,meteohub,2013-01-05 20:17:00,
2013-01-05 15:22:00,40.8,28.8,30.17,SSE,167,1.0,8.0,62,0.01,,,0.02,meteohub,2013-01-05 20:22:00,
2013-01-05 15:27:00,40.8,28.8,30.17,SSW,207,2.0,8.0,62,0.01,,,0.02,meteohub,2013-01-05 20:27:00,
2013-01-05 15:32:00,40.6,29.1,30.17,SSE,166,1.0,3.0,63,0.00,,,0.02,meteohub,2013-01-05 20:32:00,
2013-01-05 15:37:00,40.3,29.8,30.17,SSE,166,0.0,3.0,66,0.00,,,0.02,meteohub,2013-01-05 20:37:00,
2013-01-05 15:42:00,40.1,30.0,30.16,SSE,165,1.0,3.0,67,0.00,,,0.02,meteohub,2013-01-05 20:42:00,
2013-01-05 15:47:00,39.6,29.5,30.16,South,169,2.0,3.0,67,0.00,,,0.02,meteohub,2013-01-05 20:47:00,
2013-01-05 15:52:00,39.6,29.5,30.17,SSW,208,2.0,3.0,67,0.00,,,0.02,meteohub,2013-01-05 20:52:00,
2013-01-05 15:57:00,39.6,30.2,30.17,SSW,197,1.0,3.0,69,0.00,,,0.02,meteohub,2013-01-05 20:57:00,
2013-01-05 16:02:00,39.0,30.0,30.17,SSE,162,2.0,3.0,70,0.00,,,0.02,meteohub,2013-01-05 21:02:00,
2013-01-05 16:07:00,38.7,30.4,30.17,SSE,152,2.0,3.0,72,0.00,,,0.02,meteohub,2013-01-05 21:07:00,
2013-01-05 16:12:00,38.1,30.2,30.17,SW,227,0.0,2.0,73,0.00,,,0.02,meteohub,2013-01-05 21:12:00,
2013-01-05 16:17:00,38.1,30.2,30.17,SSE,156,0.0,2.0,73,0.00,,,0.02,meteohub,2013-01-05 21:17:00,
2013-01-05 16:22:00,38.1,30.6,30.17,SSE,163,2.0,2.0,74,0.00,,,0.02,meteohub,2013-01-05 21:22:00,
2013-01-05 16:27:00,38.1,30.2,30.17,SW,214,0.0,3.0,73,0.00,,,0.02,meteohub,2013-01-05 21:27:00,
2013-01-05 16:32:00,38.1,30.6,30.17,SSE,155,2.0,3.0,74,0.00,,,0.02,meteohub,2013-01-05 21:32:00,
2013-01-05 16:37:00,37.9,30.0,30.18,SSW,207,1.0,3.0,73,0.00,,,0.02,meteohub,2013-01-05 21:37:00,
2013-01-05 16:42:00,37.9,29.7,30.18,SW,228,0.0,2.0,72,0.00,,,0.02,meteohub,2013-01-05 21:42:00,
2013-01-05 16:47:00,37.9,29.3,30.18,SW,232,1.0,2.0,71,0.00,,,0.02,meteohub,2013-01-05 21:47:00,
2013-01-05 16:52:00,38.5,29.8,30.19,South,174,3.0,3.0,71,0.00,,,0.02,meteohub,2013-01-05 21:52:00,
2013-01-05 16:57:00,38.5,29.1,30.18,South,172,1.0,4.0,69,0.00,,,0.02,meteohub,2013-01-05 21:57:00,
2013-01-05 17:02:00,38.5,29.1,30.19,SSE,165,3.0,4.0,69,0.00,,,0.02,meteohub,2013-01-05 22:02:00,
2013-01-05 17:07:00,38.8,28.4,30.18,SSE,166,1.0,6.0,66,0.00,,,0.02,meteohub,2013-01-05 22:07:00,
2013-01-05 17:12:00,39.0,28.9,30.18,NW,311,0.0,6.0,67,0.00,,,0.02,meteohub,2013-01-05 22:12:00,
2013-01-05 17:17:00,39.0,29.3,30.18,SSW,193,1.0,6.0,68,0.00,,,0.02,meteohub,2013-01-05 22:17:00,
2013-01-05 17:22:00,38.7,29.3,30.18,SW,225,1.0,3.0,69,0.00,,,0.02,meteohub,2013-01-05 22:22:00,
2013-01-05 17:27:00,38.7,29.3,30.17,SSW,207,1.0,3.0,69,0.00,,,0.02,meteohub,2013-01-05 22:27:00,
2013-01-05 17:32:00,38.3,29.3,30.17,South,179,1.0,4.0,70,0.00,,,0.02,meteohub,2013-01-05 22:32:00,
2013-01-05 17:38:00,37.9,29.7,30.17,SSE,165,2.0,4.0,72,0.00,,,0.02,meteohub,2013-01-05 22:38:00,
2013-01-05 17:43:00,37.6,30.0,30.17,SSE,152,0.0,3.0,74,0.00,,,0.02,meteohub,2013-01-05 22:43:00,
2013-01-05 17:48:00,37.0,29.8,30.17,SW,236,0.0,3.0,75,0.00,,,0.02,meteohub,2013-01-05 22:48:00,
2013-01-05 17:53:00,37.0,29.8,30.17,SE,146,1.0,3.0,75,0.00,,,0.02,meteohub,2013-01-05 22:53:00,
2013-01-05 17:58:00,36.7,29.8,30.16,SSE,162,3.0,3.0,76,0.00,,,0.02,meteohub,2013-01-05 22:58:00,
2013-01-05 18:03:00,36.7,29.8,30.16,SSE,153,3.0,3.0,76,0.00,,,0.02,meteohub,2013-01-05 23:03:00,
2013-01-05 18:08:00,36.9,30.0,30.16,SSE,163,0.0,4.0,76,0.00,,,0.02,meteohub,2013-01-05 23:08:00,
2013-01-05 18:13:00,36.5,30.0,30.16,SSE,163,0.0,4.0,77,0.00,,,0.02,meteohub,2013-01-05 23:13:00,
2013-01-05 18:18:00,36.5,30.0,30.16,South,173,0.0,4.0,77,0.00,,,0.02,meteohub,2013-01-05 23:18:00,
2013-01-05 18:23:00,36.3,30.2,30.16,South,172,0.0,2.0,78,0.00,,,0.02,meteohub,2013-01-05 23:23:00,
2013-01-05 18:28:00,36.1,30.0,30.16,SSE,164,1.0,0.0,78,0.00,,,0.02,meteohub,2013-01-05 23:28:00,
2013-01-05 18:33:00,36.1,30.2,30.16,SE,143,1.0,3.0,79,0.00,,,0.02,meteohub,2013-01-05 23:33:00,
2013-01-05 18:38:00,36.3,29.5,30.17,SE,146,2.0,3.0,76,0.00,,,0.02,meteohub,2013-01-05 23:38:00,
2013-01-05 18:43:00,36.3,29.8,30.17,SSE,150,1.0,3.0,77,0.00,,,0.02,meteohub,2013-01-05 23:43:00,
2013-01-05 18:48:00,36.1,29.7,30.17,SSE,156,1.0,3.0,77,0.00,,,0.02,meteohub,2013-01-05 23:48:00,
2013-01-05 18:53:00,36.3,29.8,30.17,SSW,207,1.0,3.0,77,0.00,,,0.02,meteohub,2013-01-05 23:53:00,
2013-01-05 18:58:00,36.3,29.8,30.17,WNW,284,1.0,3.0,77,0.00,,,0.02,meteohub,2013-01-05 23:58:00,
2013-01-05 19:03:00,36.3,30.2,30.17,SW,218,3.0,3.0,78,0.00,,,0.02,meteohub,2013-01-06 00:03:00,
2013-01-05 19:08:00,36.0,30.0,30.16,SSW,201,0.0,3.0,79,0.00,,,0.02,meteohub,2013-01-06 00:08:00,
2013-01-05 19:13:00,35.6,29.7,30.16,SSW,208,0.0,3.0,79,0.00,,,0.02,meteohub,2013-01-06 00:13:00,
2013-01-05 19:18:00,35.4,29.8,30.16,SSE,159,0.0,3.0,80,0.00,,,0.02,meteohub,2013-01-06 00:18:00,
2013-01-05 19:23:00,35.8,29.8,30.16,WNW,285,0.0,2.0,79,0.00,,,0.02,meteohub,2013-01-06 00:23:00,
2013-01-05 19:28:00,35.8,29.8,30.17,West,273,0.0,1.0,79,0.00,,,0.02,meteohub,2013-01-06 00:28:00,
2013-01-05 19:33:00,35.8,29.8,30.17,SW,226,0.0,1.0,79,0.00,,,0.02,meteohub,2013-01-06 00:33:00,
2013-01-05 19:38:00,35.8,29.7,30.17,South,175,1.0,3.0,78,0.00,,,0.02,meteohub,2013-01-06 00:38:00,
2013-01-05 19:43:00,36.0,29.5,30.17,SSE,153,2.0,3.0,77,0.00,,,0.02,meteohub,2013-01-06 00:43:00,
2013-01-05 19:48:00,36.3,29.1,30.17,SSE,152,1.0,4.0,75,0.00,,,0.02,meteohub,2013-01-06 00:48:00,
2013-01-05 19:53:00,36.7,29.5,30.17,SE,145,1.0,4.0,75,0.00,,,0.02,meteohub,2013-01-06 00:53:00,
2013-01-05 19:58:00,36.1,29.3,30.17,SSE,149,0.0,4.0,76,0.00,,,0.02,meteohub,2013-01-06 00:58:00,
2013-01-05 20:03:00,35.8,29.7,30.17,SW,226,1.0,4.0,78,0.00,,,0.02,meteohub,2013-01-06 01:03:00,
2013-01-05 20:08:00,35.1,29.1,30.16,SW,233,0.0,3.0,79,0.00,,,0.02,meteohub,2013-01-06 01:08:00,
2013-01-05 20:13:00,34.5,28.9,30.17,SSW,201,0.0,1.0,80,0.00,,,0.02,meteohub,2013-01-06 01:13:00,
2013-01-05 20:18:00,34.2,28.6,30.16,SSW,205,0.0,1.0,80,0.00,,,0.02,meteohub,2013-01-06 01:18:00,
2013-01-05 20:23:00,34.2,28.6,30.16,South,176,4.0,4.0,80,0.00,,,0.02,meteohub,2013-01-06 01:23:00,
2013-01-05 20:28:00,34.3,28.6,30.16,SE,139,2.0,5.0,79,0.00,,,0.02,meteohub,2013-01-06 01:28:00,
2013-01-05 20:33:00,34.9,28.4,30.16,SSE,162,3.0,5.0,77,0.00,,,0.02,meteohub,2013-01-06 01:33:00,
2013-01-05 20:38:00,35.1,28.6,30.16,WSW,242,0.0,5.0,77,0.00,,,0.02,meteohub,2013-01-06 01:38:00,
2013-01-05 20:43:00,34.7,28.9,30.16,SW,233,1.0,5.0,79,0.00,,,0.02,meteohub,2013-01-06 01:43:00,
2013-01-05 20:48:00,34.0,29.1,30.16,WSW,245,3.0,5.0,82,0.00,,,0.02,meteohub,2013-01-06 01:48:00,
2013-01-05 20:53:00,34.0,29.3,30.16,SW,217,3.0,3.0,83,0.00,,,0.02,meteohub,2013-01-06 01:53:00,
2013-01-05 20:58:00,33.4,28.6,30.16,SSE,161,0.0,3.0,82,0.00,,,0.02,meteohub,2013-01-06 01:58:00,
2013-01-05 21:03:00,33.1,28.4,30.16,SSE,160,0.0,3.0,83,0.00,,,0.02,meteohub,2013-01-06 02:03:00,
2013-01-05 21:08:00,32.7,28.2,30.15,SSE,160,0.0,3.0,83,0.00,,,0.02,meteohub,2013-01-06 02:08:00,
2013-01-05 21:13:00,32.5,28.0,30.15,SSE,160,0.0,1.0,83,0.00,,,0.02,meteohub,2013-01-06 02:13:00,
2013-01-05 21:18:00,32.0,27.7,30.15,SSE,160,0.0,0.0,84,0.00,,,0.02,meteohub,2013-01-06 02:18:00,
2013-01-05 21:23:00,31.6,27.3,30.16,SSE,160,0.0,0.0,84,0.00,,,0.02,meteohub,2013-01-06 02:23:00,
2013-01-05 21:28:00,31.3,27.0,30.16,SSE,160,0.0,0.0,84,0.00,,,0.02,meteohub,2013-01-06 02:28:00,
2013-01-05 21:33:00,30.9,27.0,30.16,SSE,160,0.0,0.0,85,0.00,,,0.02,meteohub,2013-01-06 02:33:00,
2013-01-05 21:38:00,30.7,27.1,30.16,SSE,160,0.0,0.0,86,0.00,,,0.02,meteohub,2013-01-06 02:38:00,
2013-01-05 21:43:00,30.6,27.0,30.16,SSE,160,0.0,0.0,86,0.00,,,0.02,meteohub,2013-01-06 02:43:00,
2013-01-05 21:48:00,30.6,27.1,30.15,SSE,160,0.0,0.0,87,0.00,,,0.02,meteohub,2013-01-06 02:48:00,
2013-01-05 21:53:00,30.6,27.5,30.16,NW,326,0.0,0.0,88,0.00,,,0.02,meteohub,2013-01-06 02:53:00,
2013-01-05 21:58:00,30.4,27.3,30.16,SSE,156,0.0,1.0,88,0.00,,,0.02,meteohub,2013-01-06 02:58:00,
2013-01-05 22:03:00,30.4,27.5,30.16,SSE,156,0.0,1.0,89,0.00,,,0.02,meteohub,2013-01-06 03:03:00,
2013-01-05 22:09:00,30.4,27.5,30.15,SSE,156,0.0,1.0,89,0.00,,,0.02,meteohub,2013-01-06 03:09:00,
2013-01-05 22:14:00,30.4,27.5,30.15,SSE,156,0.0,1.0,89,0.00,,,0.02,meteohub,2013-01-06 03:14:00,
2013-01-05 22:19:00,30.4,27.5,30.15,SSE,157,0.0,0.0,89,0.00,,,0.02,meteohub,2013-01-06 03:19:00,
2013-01-05 22:24:00,30.2,27.7,30.16,SSE,158,0.0,0.0,90,0.00,,,0.02,meteohub,2013-01-06 03:24:00,
2013-01-05 22:29:00,30.0,27.5,30.15,SSE,158,0.0,1.0,90,0.00,,,0.02,meteohub,2013-01-06 03:29:00,
2013-01-05 22:34:00,29.7,27.1,30.15,SSE,167,0.0,1.0,90,0.00,,,0.02,meteohub,2013-01-06 03:34:00,
2013-01-05 22:39:00,29.5,27.0,30.15,SSE,167,0.0,0.0,90,0.00,,,0.02,meteohub,2013-01-06 03:39:00,
2013-01-05 22:44:00,29.1,26.6,30.15,SW,233,0.0,0.0,90,0.00,,,0.02,meteohub,2013-01-06 03:44:00,
2013-01-05 22:49:00,28.8,26.2,30.15,SW,233,0.0,0.0,90,0.00,,,0.02,meteohub,2013-01-06 03:49:00,
2013-01-05 22:54:00,28.6,26.1,30.15,SW,233,0.0,0.0,90,0.00,,,0.02,meteohub,2013-01-06 03:54:00,
2013-01-05 22:59:00,28.6,26.1,30.15,SW,233,0.0,0.0,90,0.00,,,0.02,meteohub,2013-01-06 03:59:00,
2013-01-05 23:04:00,28.6,26.2,30.14,SW,233,0.0,0.0,91,0.00,,,0.02,meteohub,2013-01-06 04:04:00,
2013-01-05 23:09:00,28.8,26.4,30.14,SW,233,0.0,0.0,91,0.00,,,0.02,meteohub,2013-01-06 04:09:00,
2013-01-05 23:14:00,29.1,27.1,30.14,NNE,16,0.0,0.0,92,0.00,,,0.02,meteohub,2013-01-06 04:14:00,
2013-01-05 23:19:00,28.9,26.6,30.14,North,11,0.0,0.0,91,0.00,,,0.02,meteohub,2013-01-06 04:19:00,
2013-01-05 23:24:00,29.1,27.1,30.14,North,11,0.0,0.0,92,0.00,,,0.02,meteohub,2013-01-06 04:24:00,
2013-01-05 23:29:00,28.9,27.0,30.14,North,11,0.0,0.0,92,0.00,,,0.02,meteohub,2013-01-06 04:29:00,
2013-01-05 23:34:00,29.1,27.1,30.14,North,11,0.0,0.0,92,0.00,,,0.02,meteohub,2013-01-06 04:34:00,
2013-01-05 23:39:00,29.1,27.1,30.14,North,11,0.0,0.0,92,0.00,,,0.02,meteohub,2013-01-06 04:39:00,
2013-01-05 23:44:00,29.1,27.1,30.14,North,10,0.0,0.0,92,0.00,,,0.02,meteohub,2013-01-06 04:44:00,
2013-01-05 23:49:00,29.5,27.5,30.13,North,11,0.0,0.0,92,0.00,,,0.02,meteohub,2013-01-06 04:49:00,
2013-01-05 23:54:00,29.5,27.5,30.13,North,11,0.0,0.0,92,0.00,,,0.02,meteohub,2013-01-06 04:54:00,
2013-01-05 23:59:00,29.5,27.1,30.13,North,11,0.0,0.0,91,0.00,,,0.02,meteohub,2013-01-06 04:59:00,